TimeCST,TemperatureF,Dew PointF,Humidity,Sea Level PressureIn,VisibilityMPH,Wind Direction,Wind SpeedMPH,Gust SpeedMPH,PrecipitationIn,Events,Conditions,WindDirDegrees,DateUTC
12:53 AM,27.0,19.0,72,29.74,10.0,WSW,12.7,-,N/A,,Overcast,250,2013-02-13 06:53:00
1:53 AM,27.0,19.0,72,29.73,10.0,WSW,9.2,-,N/A,,Overcast,250,2013-02-13 07:53:00
2:53 AM,26.1,19.0,75,29.73,10.0,SW,8.1,-,N/A,,Overcast,230,2013-02-13 08:53:00
3:53 AM,25.0,19.0,78,29.72,10.0,SW,9.2,-,N/A,,Overcast,220,2013-02-13 09:53:00
4:53 AM,25.0,18.0,75,29.72,10.0,WSW,8.1,-,N/A,,Overcast,240,2013-02-13 10:53:00
6:53 AM,21.9,17.1,82,29.70,10.0,SW,6.9,-,N/A,,Overcast,220,2013-02-13 12:53:00
7:53 AM,23.0,17.1,78,29.71,10.0,SW,8.1,-,N/A,,Scattered Clouds,230,2013-02-13 13:53:00
8:53 AM,25.0,18.0,75,29.70,10.0,SW,10.4,-,N/A,,Clear,230,2013-02-13 14:53:00
9:53 AM,28.0,19.9,72,29.68,10.0,SW,8.1,-,N/A,,Clear,230,2013-02-13 15:53:00
10:53 AM,30.9,21.0,67,29.67,10.0,WSW,9.2,-,N/A,,Clear,240,2013-02-13 16:53:00
11:53 AM,34.0,21.9,61,29.66,10.0,WSW,8.1,-,N/A,,Clear,240,2013-02-13 17:53:00
12:53 PM,37.0,23.0,57,29.65,10.0,WSW,6.9,-,N/A,,Clear,240,2013-02-13 18:53:00
1:53 PM,39.9,24.1,53,29.63,10.0,WSW,8.1,-,N/A,,Clear,250,2013-02-13 19:53:00
2:53 PM,39.9,26.1,58,29.63,10.0,WNW,9.2,-,N/A,,Clear,290,2013-02-13 20:53:00
3:53 PM,39.0,25.0,57,29.64,10.0,West,3.5,-,N/A,,Scattered Clouds,270,2013-02-13 21:53:00
4:53 PM,35.1,26.1,70,29.65,10.0,ENE,6.9,-,N/A,,Overcast,60,2013-02-13 22:53:00
5:53 PM,33.1,25.0,72,29.66,10.0,NNE,6.9,-,N/A,,Overcast,30,2013-02-13 23:53:00
6:53 PM,30.0,25.0,82,29.69,10.0,ENE,9.2,-,N/A,,Overcast,70,2013-02-14 00:53:00
7:34 PM,28.4,24.8,86,29.66,2.5,ENE,6.9,-,0.00,Snow,Light Snow,70,2013-02-14 01:34:00
7:53 PM,28.9,25.0,85,29.70,2.5,ENE,5.8,-,0.00,Snow,Light Snow,70,2013-02-14 01:53:00
8:16 PM,28.4,24.8,86,29.66,4.0,ENE,4.6,-,0.00,Snow,Light Snow,70,2013-02-14 02:16:00
8:25 PM,28.4,24.8,86,29.66,7.0,ENE,4.6,-,0.00,,Overcast,60,2013-02-14 02:25:00
8:53 PM,28.0,26.1,92,29.70,10.0,NE,4.6,-,0.00,,Overcast,50,2013-02-14 02:53:00
9:04 PM,28.4,26.6,93,29.66,10.0,ENE,4.6,-,N/A,,Overcast,60,2013-02-14 03:04:00
9:53 PM,28.0,25.0,88,29.70,10.0,ENE,4.6,-,N/A,,Overcast,60,2013-02-14 03:53:00
10:53 PM,28.0,25.0,88,29.69,10.0,Calm,Calm,-,0.00,,Overcast,0,2013-02-14 04:53:00
11:53 PM,27.0,23.0,85,29.70,10.0,Calm,Calm,-,N/A,,Overcast,0,2013-02-14 05:53:00